Location: Heathcote
(40.9845°N, 73.7746°W)
Time: 13:22:43
(UTC+00:00)

Meteor 2-10 Rocket - Pass Details

Date: 29 October 2020
Orbit: 734 x 885 km, 81.2° (Epoch: 01 December)

Event Time Altitude Azimuth Distance (km) Brightness Sun altitude
Rises 22:49:46 0° 174° (S) 3,310 6.8 -11.1°
Reaches altitude 10° 22:52:14 10° 169° (S) 2,359 6.0 -11.5°
Maximum altitude 22:57:21 51° 95° (E) 966 3.6 -12.5°
Drops below altitude 10° 23:02:19 10° 20° (NNE) 2,289 5.7 -13.4°
Sets 23:04:41 0° 16° (NNE) 3,203 6.5 -13.9°
